Location: Saddleback Butte
(34.6776°N, 117.8050°W)
Time: 20:55:11
(UTC-07:00)

Iridium 35 - Visible Passes

Search period start: 21 August 2014 00:00
Search period end: 31 August 2014 00:00
Orbit: 776 x 779 km, 86.4° (Epoch: 21 August)

Date Brightness Start Highest point End Pass type
(mag) Time Alt. Az. Time Alt. Az. Time Alt. Az.
21 Aug 7.6 03:47:14 10° ESE 03:50:32 17° E 03:53:51 10° NE visible
21 Aug 5.4 05:25:54 10° SSW 05:30:49 43° W 05:35:47 10° NNW visible
22 Aug 5.0 04:52:03 10° S 04:57:15 85° W 05:02:29 10° N visible
23 Aug 5.9 04:18:49 10° SSE 04:23:48 49° E 04:28:49 10° NNE visible
24 Aug 7.0 03:46:16 10° SE 03:50:28 26° E 03:54:42 10° NNE visible
24 Aug 5.9 05:26:31 10° SW 05:31:01 29° W 05:35:32 10° NNW visible
25 Aug 7.7 03:14:54 10° ESE 03:17:15 13° E 03:19:37 10° NE visible
25 Aug 5.1 04:53:46 19° SSW 04:57:22 57° W 05:02:30 10° N visible
26 Aug 5.1 04:21:01 27° S 04:23:51 74° E 04:29:03 10° N visible
27 Aug 6.3 03:48:13 26° SE 03:50:27 38° E 03:55:13 10° NNE visible
27 Aug 6.4 05:28:44 15° WSW 05:31:15 20° W 05:35:01 10° NNW visible
28 Aug 7.2 03:15:23 17° ESE 03:17:10 20° E 03:20:51 10° NE visible
28 Aug 5.5 04:55:53 30° WSW 04:57:32 38° W 05:02:22 10° NNW visible
29 Aug 4.9 04:23:01 58° SSW 04:23:57 74° W 04:29:10 10° N visible
30 Aug 5.5 03:50:06 55° ESE 03:50:28 57° E 03:55:34 10° N visible
30 Aug 6.7 05:30:36 13° W 05:31:32 13° WNW 05:34:00 10° NW visible
